Location: Southlake
(32.9412°N, 97.1342°W)
Time: 07:48:52
(UTC+00:00)

Landsat 5 - Visible Passes

Search period start: 26 June 2022 00:00
Search period end: 06 July 2022 00:00
Orbit: 528 x 649 km, 98.2° (Epoch: 25 June)

Date Brightness Start Highest point End Pass type
(mag) Time Alt. Az. Time Alt. Az. Time Alt. Az.
30 Jun 5.7 02:07:22 10° N 02:11:11 31° WNW 02:14:50 10° SW visible
01 Jul 6.1 02:15:05 10° NNW 02:18:38 26° WNW 02:22:03 10° SW visible
02 Jul 6.4 02:22:51 10° NNW 02:26:05 21° WNW 02:29:13 10° WSW visible
03 Jul 6.5 02:30:42 10° NNW 02:33:31 18° WNW 02:36:16 10° WSW visible
04 Jul 6.7 02:38:39 10° NNW 02:40:56 14° WNW 02:43:11 10° W visible
05 Jul 6.9 02:46:51 10° NW 02:48:21 12° WNW 02:49:50 10° W visible
